Location: ???????
(55.4362°N, 38.1183°E)
Time: 03:37:43
(UTC+00:00)

Cosmos 2322 Rocket - Pass Details

Date: 17 June 2021
Orbit: 833 x 850 km, 71.0° (Epoch: 26 July)

Event Time Altitude Azimuth Distance (km) Brightness Sun altitude
Rises 19:49:33 0° 231° (SW) 3,409 5.2 -8.4°
Reaches altitude 10° 19:52:04 10° 236° (WSW) 2,478 4.5 -8.5°
Maximum altitude 19:57:37 52° 313° (NW) 1,053 3.2 -8.8°
Drops below altitude 10° 20:03:12 10° 30° (NNE) 2,489 5.3 -9.1°
Sets 20:05:45 0° 35° (NE) 3,427 5.9 -9.2°
